sat.trackr.live / text

‹ back to catalog

STARLINK-32443

NORAD 61672 · 2024-193M

PAYLOAD ACTIVE UNKNOWN

§ Identity

Operator
Country
US
Launch date
2024-10-26
Launch site
AFETR
Launch vehicle
Mass (kg)
RCS (m²)

Purposes: comms

External: N2YO · Heavens-Above · Gunter

§ Orbital elements

Epoch: 2026-05-25T03:25:38.022816Z

Period
94.10 min
Inclination
53.1588°
Eccentricity
0.0001225
Mean motion
15.30212095 rev/d
Perigee alt
474.3 km
Apogee alt
476.0 km
Semi-major
6,853.3 km
B*
2.6023e-4
RAAN
95.7705°
Arg perigee
84.4275°
Mean anomaly
275.6865°
Rev number
8,823

§ Raw data

STARLINK-324431 61672U 24193M   26145.14280119  .00007359  00000+0  26023-3 0  99942 61672  53.1588  95.7705 0001225  84.4275 275.6865 15.30212095 88235

JSON: /api/v1/satellites/61672 · /tle

For live sub-satellite position, see the globe view (requires WebGL).

§ Visibility from observer

Set your observer location to see the next 7 days of passes ≥ 10°. The values pass through the URL so the page stays shareable.

No JS? Fill the form by hand. The geolocation button needs JavaScript.